When you browse on this site, cookies collect data to enhance your experience and personalize the content and advertising you see.
Visit our Privacy Policy to learn more. By continuing to use the site, you agree to this use of cookies and data.
  • Em Portugal
  • Lista de países
  • Para 7 dias
  • Temperatura da água
  • Mapa do tempo
  • Widgets de tempo
  • user-avatar
    Iniciar Sessão

    Previsão horária em Reshi

    Hoje, 5 Junho, Sexta-feira

    Tempo Temperatura Precipitação Vento Pressão Humidade
    00:00 +8°C° 0 mm 1 m/s 749 mmHg 80%
    01:00 +8°C° 0 mm 1 m/s 749 mmHg 83%
    02:00 +7°C° 0 mm 1 m/s 750 mmHg 84%
    03:00 +7°C° 0 mm 1 m/s 750 mmHg 86%
    04:00 +7°C° 0 mm 1 m/s 750 mmHg 88%
    05:00 +10°C° 0 mm 1 m/s 750 mmHg 78%
    06:00 +12°C° 0 mm 1 m/s 750 mmHg 68%
    07:00 +14°C° 0 mm 1 m/s 750 mmHg 57%
    08:00 +16°C° 0 mm 2 m/s 750 mmHg 51%
    09:00 +17°C° 0 mm 2 m/s 750 mmHg 44%
    10:00 +19°C° 0 mm 2 m/s 750 mmHg 37%
    11:00 +20°C° 0 mm 2 m/s 750 mmHg 35%
    12:00 +21°C° 0 mm 2 m/s 749 mmHg 33%
    13:00 +23°C° 0 mm 1 m/s 749 mmHg 31%
    14:00 +23°C° 0 mm 1 m/s 749 mmHg 31%
    15:00 +23°C° 0 mm 1 m/s 749 mmHg 31%
    16:00 +24°C° 0 mm 1 m/s 749 mmHg 31%
    17:00 +22°C° 0 mm 1 m/s 749 mmHg 38%
    18:00 +21°C° 0 mm 1 m/s 749 mmHg 44%
    19:00 +19°C° 0 mm 2 m/s 749 mmHg 51%
    20:00 +17°C° 0 mm 2 m/s 749 mmHg 56%
    21:00 +14°C° 0 mm 2 m/s 749 mmHg 60%
    22:00 +12°C° 0 mm 2 m/s 750 mmHg 64%
    23:00 +12°C° 0 mm 1 m/s 750 mmHg 70%

    Amanhã, 6 Junho, Sábado

    Tempo Temperatura Precipitação Vento Pressão Humidade
    00:00 +11°C° 0 mm 1 m/s 749 mmHg 75%
    01:00 +11°C° 0 mm 1 m/s 749 mmHg 80%
    02:00 +11°C° 0 mm 1 m/s 750 mmHg 81%
    03:00 +11°C° 0 mm 1 m/s 750 mmHg 83%
    04:00 +10°C° 0 mm 1 m/s 750 mmHg 84%
    05:00 +13°C° 0 mm 1 m/s 750 mmHg 77%
    06:00 +15°C° 0 mm 1 m/s 750 mmHg 70%
    07:00 +18°C° 0 mm 1 m/s 750 mmHg 63%
    08:00 +20°C° 0 mm 1 m/s 750 mmHg 56%
    09:00 +22°C° 0 mm 1 m/s 750 mmHg 49%
    10:00 +24°C° 0 mm 2 m/s 750 mmHg 41%
    11:00 +24°C° 0 mm 2 m/s 750 mmHg 39%
    12:00 +25°C° 0 mm 2 m/s 749 mmHg 37%
    13:00 +26°C° 0 mm 2 m/s 749 mmHg 35%
    14:00 +26°C° 0 mm 2 m/s 749 mmHg 36%
    15:00 +26°C° 0 mm 2 m/s 749 mmHg 36%
    16:00 +26°C° 0 mm 2 m/s 749 mmHg 37%
    17:00 +25°C° 0 mm 2 m/s 748 mmHg 44%
    18:00 +24°C° 0 mm 2 m/s 748 mmHg 51%
    19:00 +22°C° 0 mm 1 m/s 748 mmHg 58%
    20:00 +19°C° 0 mm 2 m/s 748 mmHg 63%
    21:00 +17°C° 0 mm 2 m/s 748 mmHg 68%
    22:00 +15°C° 0 mm 2 m/s 749 mmHg 72%
    23:00 +15°C° 0 mm 2 m/s 749 mmHg 72%

    Depois de amanhã, 7 Junho, Domingo

    Tempo Temperatura Precipitação Vento Pressão Humidade
    00:00 +14°C° 0 mm 1 m/s 749 mmHg 71%
    01:00 +13°C° 0 mm 1 m/s 749 mmHg 71%
    02:00 +13°C° 0 mm 1 m/s 749 mmHg 71%
    03:00 +13°C° 0 mm 1 m/s 749 mmHg 72%
    04:00 +12°C° 0 mm 1 m/s 750 mmHg 72%
    05:00 +15°C° 0 mm 1 m/s 750 mmHg 67%
    06:00 +18°C° 0 mm 1 m/s 750 mmHg 61%
    07:00 +20°C° 0 mm 1 m/s 750 mmHg 55%
    08:00 +22°C° 0 mm 1 m/s 750 mmHg 50%
    09:00 +24°C° 0 mm 1 m/s 750 mmHg 44%
    10:00 +26°C° 0 mm 2 m/s 750 mmHg 38%
    11:00 +26°C° 0 mm 2 m/s 750 mmHg 35%
    12:00 +27°C° 0 mm 2 m/s 750 mmHg 32%
    13:00 +27°C° 0 mm 2 m/s 750 mmHg 29%
    14:00 +27°C° 0 mm 2 m/s 749 mmHg 30%
    15:00 +28°C° 0 mm 2 m/s 749 mmHg 30%
    16:00 +28°C° 0 mm 1 m/s 749 mmHg 31%
    17:00 +26°C° 0 mm 1 m/s 749 mmHg 38%
    18:00 +25°C° 0 mm 1 m/s 749 mmHg 45%
    19:00 +24°C° 0 mm 1 m/s 749 mmHg 52%
    20:00 +22°C° 0 mm 1 m/s 749 mmHg 56%
    21:00 +19°C° 0 mm 1 m/s 749 mmHg 60%
    22:00 +16°C° 0 mm 2 m/s 750 mmHg 64%
    23:00 +16°C° 0 mm 1 m/s 750 mmHg 67%

    8 Junho, Segunda-feira

    Tempo Temperatura Precipitação Vento Pressão Humidade
    00:00 +15°C° 0 mm 1 m/s 750 mmHg 70%
    01:00 +14°C° 0 mm 1 m/s 750 mmHg 72%
    02:00 +14°C° 0 mm 1 m/s 750 mmHg 74%
    03:00 +14°C° 0 mm 1 m/s 750 mmHg 76%
    04:00 +14°C° 0 mm 1 m/s 751 mmHg 78%
    05:00 +16°C° 0 mm 1 m/s 751 mmHg 71%
    06:00 +19°C° 0 mm 1 m/s 751 mmHg 64%
    07:00 +22°C° 0 mm 1 m/s 751 mmHg 58%
    08:00 +23°C° 0 mm 2 m/s 751 mmHg 52%
    09:00 +25°C° 0 mm 3 m/s 751 mmHg 46%
    10:00 +26°C° 0 mm 3 m/s 751 mmHg 40%
    11:00 +27°C° 0 mm 4 m/s 751 mmHg 39%
    12:00 +27°C° 0 mm 4 m/s 751 mmHg 37%
    13:00 +28°C° 0 mm 4 m/s 751 mmHg 36%
    14:00 +28°C° 0 mm 4 m/s 750 mmHg 37%
    15:00 +28°C° 0 mm 4 m/s 750 mmHg 38%
    16:00 +28°C° 0 mm 4 m/s 750 mmHg 39%
    17:00 +27°C° 0 mm 3 m/s 750 mmHg 46%
    18:00 +26°C° 0 mm 3 m/s 750 mmHg 54%
    19:00 +25°C° 0 mm 2 m/s 750 mmHg 62%
    20:00 +23°C° 0 mm 2 m/s 750 mmHg 68%
    21:00 +20°C° 0 mm 2 m/s 750 mmHg 73%
    22:00 +18°C° 0 mm 2 m/s 750 mmHg 79%
    23:00 +17°C° 0 mm 2 m/s 750 mmHg 79%

    9 Junho, Terça-feira

    Tempo Temperatura Precipitação Vento Pressão Humidade
    00:00 +17°C° 0 mm 2 m/s 750 mmHg 79%
    01:00 +17°C° 0 mm 2 m/s 751 mmHg 78%
    02:00 +16°C° 0 mm 2 m/s 751 mmHg 78%
    03:00 +16°C° 0 mm 2 m/s 751 mmHg 79%
    04:00 +16°C° 0 mm 2 m/s 751 mmHg 79%
    05:00 +18°C° 0 mm 2 m/s 751 mmHg 73%
    06:00 +20°C° 0 mm 2 m/s 751 mmHg 67%
    07:00 +23°C° 0 mm 2 m/s 751 mmHg 62%
    08:00 +25°C° 0 mm 3 m/s 751 mmHg 56%
    09:00 +27°C° 0 mm 3 m/s 751 mmHg 51%
    10:00 +28°C° 0 mm 3 m/s 751 mmHg 45%
    11:00 +29°C° 0 mm 3 m/s 751 mmHg 44%
    12:00 +29°C° 0 mm 3 m/s 751 mmHg 43%
    13:00 +30°C° 0 mm 3 m/s 751 mmHg 42%
    14:00 +30°C° 0 mm 3 m/s 751 mmHg 42%
    15:00 +30°C° 0 mm 3 m/s 750 mmHg 42%
    16:00 +30°C° 0 mm 3 m/s 750 mmHg 41%
    17:00 +29°C° 0 mm 2 m/s 750 mmHg 48%
    18:00 +28°C° 0 mm 2 m/s 750 mmHg 55%
    19:00 +27°C° 0 mm 2 m/s 750 mmHg 62%
    20:00 +25°C° 0 mm 2 m/s 750 mmHg 66%
    21:00 +23°C° 0 mm 2 m/s 750 mmHg 71%
    22:00 +21°C° 0 mm 3 m/s 750 mmHg 75%
    23:00 +20°C° 0 mm 2 m/s 750 mmHg 76%

    10 Junho, Quarta-feira

    Tempo Temperatura Precipitação Vento Pressão Humidade
    00:00 +19°C° 0 mm 2 m/s 750 mmHg 76%
    01:00 +19°C° 0 mm 2 m/s 750 mmHg 77%
    02:00 +18°C° 0 mm 2 m/s 750 mmHg 78%
    03:00 +18°C° 0 mm 2 m/s 751 mmHg 79%
    04:00 +18°C° 0 mm 2 m/s 751 mmHg 81%
    05:00 +19°C° 0 mm 2 m/s 751 mmHg 75%
    06:00 +21°C° 0 mm 2 m/s 751 mmHg 69%
    07:00 +24°C° 0 mm 2 m/s 751 mmHg 63%
    08:00 +25°C° 0 mm 3 m/s 751 mmHg 56%
    09:00 +27°C° 0 mm 3 m/s 751 mmHg 49%
    10:00 +28°C° 0 mm 4 m/s 751 mmHg 42%
    11:00 +29°C° 0 mm 4 m/s 750 mmHg 41%
    12:00 +29°C° 0 mm 4 m/s 750 mmHg 40%
    13:00 +30°C° 0 mm 4 m/s 750 mmHg 38%
    14:00 +30°C° 0 mm 4 m/s 750 mmHg 38%
    15:00 +29°C° 0 mm 4 m/s 750 mmHg 39%
    16:00 +29°C° 0 mm 4 m/s 750 mmHg 39%
    17:00 +28°C° 0 mm 3 m/s 749 mmHg 45%
    18:00 +27°C° 0 mm 3 m/s 749 mmHg 52%
    19:00 +26°C° 0 mm 2 m/s 749 mmHg 58%
    20:00 +24°C° 0 mm 2 m/s 749 mmHg 64%
    21:00 +21°C° 0 mm 2 m/s 750 mmHg 69%
    22:00 +20°C° 0 mm 2 m/s 750 mmHg 75%
    23:00 +19°C° 0 mm 2 m/s 750 mmHg 75%
    Mostrar mais